sat.trackr.live / text

‹ back to catalog

STARLINK-4440

NORAD 53671 · 2022-105Z

PAYLOAD ACTIVE UNKNOWN

§ Identity

Operator
Country
US
Launch date
2022-08-31
Launch site
AFWTR
Launch vehicle
Mass (kg)
RCS (m²)

Purposes: comms

External: N2YO · Heavens-Above · Gunter

§ Orbital elements

Epoch: 2026-05-24T21:33:58.607136Z

Period
95.64 min
Inclination
97.4524°
Eccentricity
0.0002245
Mean motion
15.05652692 rev/d
Perigee alt
547.9 km
Apogee alt
551.1 km
Semi-major
6,927.6 km
B*
-3.3786e-7
RAAN
24.8155°
Arg perigee
78.0206°
Mean anomaly
282.1273°
Rev number
20,469

§ Raw data

STARLINK-44401 53671U 22105Z   26144.89859499 -.00000064  00000+0 -33786-6 0  99942 53671  97.4524  24.8155 0002245  78.0206 282.1273 15.05652692204693

JSON: /api/v1/satellites/53671 · /tle

For live sub-satellite position, see the globe view (requires WebGL).

§ Visibility from observer

Set your observer location to see the next 7 days of passes ≥ 10°. The values pass through the URL so the page stays shareable.

No JS? Fill the form by hand. The geolocation button needs JavaScript.